FW6482 Weather Reports


Display with metric or nautical units.
time (UTC)temp
F
wind
direction
speed
MPH
gust
MPH
rain 1hr
in
rain 24hr
in
rain mn
in
humidity
%
barometer
mb
20260902103053 70 238 3.0 10.0 0.00 0.00 0.00 56 1018.6
20260902101552 70 251 7.0 13.0 0.00 0.00 0.00 53 1018.6
20260902100052 71 221 7.0 12.0 0.00 0.00 0.00 51 1018.6
20260902094549 70 267 4.0 14.0 0.00 0.00 0.00 54 1018.7
20260902093050 70 232 3.0 11.0 0.00 0.00 0.00 56 1018.5
20260902091544 70 246 4.0 10.0 0.00 0.00 0.00 58 1018.5
20260902090039 68 244 5.0 11.0 0.00 0.00 0.00 63 1018.5
20260902084535 67 284 4.0 11.0 0.00 0.00 0.00 65 1018.7
20260902083031 65 246 2.0 9.0 0.00 0.00 0.00 73 1018.6
20260902081526 62 254 2.0 5.0 0.00 0.00 0.00 77 1018.5
20260902080024 61 254 2.0 8.0 0.00 0.00 0.00 77 1018.5
20260902074525 61 267 4.0 9.0 0.00 0.00 0.00 79 1018.6
20260902073019 60 257 2.0 7.0 0.00 0.00 0.00 79 1018.4
20260902071516 60 258 2.0 6.0 0.00 0.00 0.00 81 1018.3
20260902070019 59 261 2.0 4.0 0.00 0.00 0.00 82 1018.3
20260902064512 59 265 1.0 4.0 0.00 0.00 0.00 84 1018.2
20260902063011 57 273 3.0 7.0 0.00 0.00 0.00 86 1017.9
20260902061522 56 324 3.0 6.0 0.00 0.00 0.00 88 1017.9
20260902060005 55 355 3.0 5.0 0.00 0.00 0.00 90 1017.9
20260902054505 55 5 1.0 3.0 0.00 0.00 0.00 91 1017.7
20260902053003 55 9 1.0 3.0 0.00 0.00 0.00 92 1017.6
20260902051601 55 5 1.0 3.0 0.00 0.00 0.00 92 1017.3
20260902050058 55 5 1.0 2.0 0.00 0.00 0.00 92 1017.4
20260902044557 55 9 2.0 3.0 0.00 0.00 0.00 92 1017.4
20260902043102 55 5 1.0 3.0 0.00 0.00 0.00 92 1017.5
20260902041556 55 9 0.0 0.0 0.00 0.00 0.00 92 1017.5
20260902040055 55 9 0.0 0.0 0.00 0.00 0.00 92 1017.6
20260902034558 55 9 0.0 0.0 0.00 0.00 0.00 92 1017.6
20260902033057 55 5 0.0 0.0 0.00 0.00 0.00 92 1017.5
20260902031553 55 5 0.0 0.0 0.00 0.00 0.00 91 1017.5
20260902030051 55 5 0.0 1.0 0.00 0.00 0.00 91 1017.6
20260902024551 55 9 1.0 3.0 0.00 0.00 0.00 91 1017.8
20260902023105 55 9 1.0 3.0 0.00 0.00 0.00 91 1018.0
20260902021549 55 5 1.0 3.0 0.00 0.00 0.00 90 1018.2
20260902020047 55 9 1.0 3.0 0.00 0.00 0.00 90 1018.0
20260902014547 55 9 1.0 3.0 0.00 0.00 0.00 90 1017.8
20260902013053 55 9 1.0 3.0 0.00 0.00 0.00 90 1017.9
20260902011545 56 9 2.0 3.0 0.00 0.00 0.00 89 1017.9
20260902010042 56 9 1.0 3.0 0.00 0.00 0.00 89 1017.8
20260902004542 56 9 2.0 4.0 0.00 0.00 0.00 89 1017.8
20260902003042 56 9 2.0 3.0 0.00 0.00 0.00 89 1017.9
20260902001554 56 9 2.0 4.0 0.00 0.00 0.00 89 1017.9
20260902000040 56 9 2.0 4.0 0.00 0.00 0.00 88 1017.9
20260901234537 57 9 1.0 3.0 0.00 0.00 0.00 88 1017.7
20260901233036 57 9 1.0 3.0 0.00 0.00 0.00 88 1017.8
20260901231533 57 9 1.0 3.0 0.00 0.00 0.00 87 1018.0
20260901230031 58 9 1.0 2.0 0.00 0.00 0.00 86 1018.1
20260901224529 58 9 1.0 3.0 0.00 0.01 0.00 86 1018.5
20260901223028 58 9 2.0 3.0 0.00 0.01 0.00 85 1018.5
20260901221525 59 9 1.0 3.0 0.00 0.01 0.00 85 1018.4
20260901220022 59 9 1.0 2.0 0.00 0.01 0.00 83 1018.3
20260901214521 59 9 0.0 2.0 0.00 0.01 0.01 82 1018.3
20260901213020 60 9 1.0 3.0 0.00 0.01 0.01 82 1018.2
20260901211520 60 9 1.0 3.0 0.00 0.01 0.01 82 1018.2
20260901210018 60 9 1.0 2.0 0.00 0.01 0.01 82 1018.2
20260901204518 61 9 0.0 2.0 0.00 0.01 0.01 79 1018.2
20260901203023 62 9 1.0 3.0 0.00 0.01 0.01 78 1018.1
20260901201517 62 9 0.0 0.0 0.00 0.01 0.01 77 1018.1
20260901200016 63 9 0.0 0.0 0.00 0.01 0.01 76 1018.2
20260901194515 63 9 0.0 0.0 0.00 0.01 0.01 74 1018.3
20260901193016 64 9 0.0 0.0 0.00 0.01 0.01 74 1018.1
20260901191527 65 9 0.0 0.0 0.00 0.01 0.01 73 1018.1
20260901190015 65 9 0.0 1.0 0.00 0.01 0.01 71 1018.1
20260901184513 66 9 0.0 1.0 0.00 0.01 0.01 70 1018.0
20260901183011 67 9 0.0 1.0 0.00 0.01 0.01 68 1017.9
20260901181511 68 9 0.0 1.0 0.00 0.01 0.01 67 1017.8
20260901180013 69 9 0.0 0.0 0.00 0.01 0.01 66 1017.7
20260901174509 69 9 0.0 1.0 0.00 0.04 0.01 64 1017.7
20260901173016 70 9 0.0 2.0 0.00 0.04 0.01 63 1017.6
20260901171514 71 9 1.0 4.0 0.00 0.04 0.01 61 1017.5
20260901170008 73 240 1.0 2.0 0.00 0.04 0.01 57 1017.4
20260901164523 74 240 1.0 7.0 0.00 0.13 0.01 55 1017.4
20260901163007 75 242 2.0 5.0 0.00 0.13 0.01 53 1017.5
20260901161509 76 234 2.0 10.0 0.00 0.13 0.01 51 1017.5
20260901160006 76 86 2.0 9.0 0.00 0.13 0.01 52 1017.5
20260901154505 77 246 2.0 8.0 0.00 0.13 0.01 50 1017.4
20260901153002 77 242 3.0 7.0 0.00 0.13 0.01 52 1017.4
20260901151559 76 268 1.0 8.0 0.00 0.13 0.01 52 1017.5
20260901150059 74 238 2.0 8.0 0.00 0.13 0.01 56 1017.5
20260901144559 74 196 2.0 8.0 0.00 0.35 0.01 54 1017.5
20260901143059 75 313 2.0 11.0 0.00 0.35 0.01 54 1017.6
20260901141555 74 229 2.0 9.0 0.00 0.35 0.01 57 1017.6
20260901140057 74 272 1.0 10.0 0.00 0.35 0.01 62 1017.7
20260901134553 73 234 3.0 8.0 0.00 0.35 0.01 61 1017.6
20260901133053 72 212 1.0 3.0 0.00 0.35 0.01 64 1017.7
20260901131552 72 212 2.0 4.0 0.00 0.35 0.01 63 1017.8
20260901130059 73 161 3.0 6.0 0.00 0.35 0.01 60 1017.8
20260901124551 74 17 2.0 8.0 0.00 0.49 0.01 60 1017.6
20260901123050 74 229 2.0 6.0 0.00 0.49 0.01 60 1017.7
20260901121549 74 274 1.0 3.0 0.00 0.49 0.01 60 1017.6
20260901120048 74 284 0.0 3.0 0.00 0.49 0.01 61 1017.8
20260901114622 73 246 0.0 12.0 0.00 0.49 0.01 63 1017.7
20260901113048 73 237 3.0 8.0 0.00 0.49 0.01 63 1017.8
20260901111550 74 194 1.0 5.0 0.00 0.49 0.01 62 1017.7
20260901110045 74 241 2.0 7.0 0.00 0.49 0.01 59 1017.7
20260901104543 73 234 3.0 9.0 0.00 0.50 0.01 60 1017.6